Location: Châteauvieux
(47.2310°N, 1.3828°E)
Time: 23:19:43
(UTC+00:00)

Cosmos 2333 Rocket - Pass Details

Date: 15 May 2026
Orbit: 841 x 862 km, 70.8° (Epoch: 6 June)

Event Time Altitude Azimuth Distance (km) Brightness Sun altitude
Rises 19:50:50 0° 336° (NNW) 3,421 6.5 -4.7°
Reaches altitude 10° 19:53:32 10° 346° (NNW) 2,485 5.5 -5.1°
Maximum altitude 19:58:41 34° 51° (NE) 1,383 3.2 -5.8°
Drops below altitude 10° 20:03:50 10° 115° (ESE) 2,486 4.0 -6.5°
Enters shadow 20:04:29 - 118° (ESE) 2,704 4.2 -6.6°
